Location: Campos dos Goitacazes
(21.7500°S, 41.3000°W)
Time: 23:27:11
(UTC-03:00)

Tiangong - Visible Passes

Search period start: 20 June 2024 00:00
Search period end: 30 June 2024 00:00
Orbit: 378 x 384 km, 41.5° (Epoch: 20 June)

Date Brightness Start Highest point End Pass type
(mag) Time Alt. Az. Time Alt. Az. Time Alt. Az.
23 Jun 0.4 05:33:54 10° S 05:35:47 15° SSE 05:37:41 10° ESE visible
25 Jun -0.5 05:09:33 21° S 05:10:42 27° SSE 05:13:26 10° E visible
26 Jun -1.7 05:43:47 14° WSW 05:46:21 50° NW 05:49:24 10° NE visible
27 Jun -1.2 04:45:52 47° E 04:45:52 47° E 04:48:22 10° ENE visible
28 Jun -0.5 05:20:06 20° WNW 05:20:40 21° NW 05:23:08 10° N visible
28 Jun 0.6 18:33:28 10° NNE 18:33:40 10° NNE 18:33:40 10° NNE visible
29 Jun 1.0 04:22:09 13° NE 04:22:09 13° NE 04:22:37 10° NE visible
29 Jun 0.4 19:06:43 10° NW 19:07:51 20° NW 19:07:51 20° NW visible
